Time,TemperatureF,DewpointF,PressureIn,WindDirection,WindDirectionDegrees,WindSpeedMPH,WindSpeedGustMPH,Humidity,HourlyPrecipIn,Conditions,Clouds,dailyrainin,SoftwareType,DateUTC
2013-01-19 00:01:00,17.8,-4.7,30.01,SSE,160,0.0,0.0,36,0.00,,,0.00,meteohub,2013-01-19 05:01:00,
2013-01-19 00:02:00,17.8,-4.7,30.01,SSE,160,0.0,0.0,36,0.00,,,0.00,meteohub,2013-01-19 05:02:00,
2013-01-19 00:03:00,17.8,-4.7,30.01,SSE,160,0.0,0.0,36,0.00,,,0.00,meteohub,2013-01-19 05:03:00,
2013-01-19 00:04:00,18.0,-4.5,30.01,SSE,160,0.0,0.0,36,0.00,,,0.00,meteohub,2013-01-19 05:04:00,
2013-01-19 00:08:00,18.0,-4.5,30.01,SSE,160,0.0,0.0,36,0.00,,,0.00,meteohub,2013-01-19 05:08:00,
2013-01-19 00:09:00,18.0,-4.5,30.01,SSE,160,0.0,0.0,36,0.00,,,0.00,meteohub,2013-01-19 05:09:00,
2013-01-19 00:11:00,18.0,-4.5,30.01,SSE,160,0.0,0.0,36,0.00,,,0.00,meteohub,2013-01-19 05:11:00,
2013-01-19 00:14:00,18.1,-4.4,30.01,SSE,160,0.0,0.0,36,0.00,,,0.00,meteohub,2013-01-19 05:14:00,
2013-01-19 00:15:00,18.1,-4.4,30.01,SSE,160,0.0,0.0,36,0.00,,,0.00,meteohub,2013-01-19 05:15:00,
2013-01-19 00:16:00,18.1,-4.4,30.01,SSE,160,0.0,0.0,36,0.00,,,0.00,meteohub,2013-01-19 05:16:00,
2013-01-19 00:17:00,18.1,-4.4,30.01,SSE,160,0.0,0.0,36,0.00,,,0.00,meteohub,2013-01-19 05:17:00,
2013-01-19 00:22:00,18.3,-4.2,30.01,SSE,160,0.0,0.0,36,0.00,,,0.00,meteohub,2013-01-19 05:22:00,
2013-01-19 00:23:00,18.5,-4.0,30.01,SSE,160,0.0,0.0,36,0.00,,,0.00,meteohub,2013-01-19 05:23:00,
2013-01-19 00:24:00,18.5,-4.0,30.01,SSE,160,0.0,0.0,36,0.00,,,0.00,meteohub,2013-01-19 05:24:00,
2013-01-19 00:27:00,18.7,-3.8,30.01,SSE,160,0.0,0.0,36,0.00,,,0.00,meteohub,2013-01-19 05:27:00,
2013-01-19 00:28:00,18.7,-3.8,30.01,SSW,206,0.0,0.0,36,0.00,,,0.00,meteohub,2013-01-19 05:28:00,
2013-01-19 00:29:00,18.7,-3.8,30.01,SSW,206,0.0,0.0,36,0.00,,,0.00,meteohub,2013-01-19 05:29:00,
2013-01-19 00:31:00,18.7,-3.8,30.01,SSW,206,0.0,0.0,36,0.00,,,0.00,meteohub,2013-01-19 05:31:00,
2013-01-19 00:32:00,18.9,-3.6,30.01,SSW,206,0.0,0.0,36,0.00,,,0.00,meteohub,2013-01-19 05:32:00,
2013-01-19 00:33:00,18.9,-3.6,30.01,SSW,206,0.0,0.0,36,0.00,,,0.00,meteohub,2013-01-19 05:33:00,
2013-01-19 00:34:00,18.9,-3.6,30.01,West,280,2.0,0.0,36,0.00,,,0.00,meteohub,2013-01-19 05:34:00,
2013-01-19 00:36:00,19.0,-3.5,30.01,West,280,0.0,0.0,36,0.00,,,0.00,meteohub,2013-01-19 05:36:00,
2013-01-19 00:38:00,19.2,-3.5,30.01,West,280,0.0,0.0,36,0.00,,,0.00,meteohub,2013-01-19 05:38:00,
2013-01-19 00:41:00,19.2,-3.5,30.01,West,279,0.0,0.0,36,0.00,,,0.00,meteohub,2013-01-19 05:41:00,
2013-01-19 00:42:00,19.4,-3.3,30.01,SSW,209,3.0,0.0,36,0.00,,,0.00,meteohub,2013-01-19 05:42:00,
2013-01-19 00:44:00,19.6,-3.1,30.01,NNW,336,0.0,7.0,36,0.00,,,0.00,meteohub,2013-01-19 05:44:00,
2013-01-19 00:46:00,19.8,-2.9,30.01,SW,218,0.0,7.0,36,0.00,,,0.00,meteohub,2013-01-19 05:46:00,
2013-01-19 00:47:00,19.9,-2.7,30.01,WNW,289,2.0,7.0,36,0.00,,,0.00,meteohub,2013-01-19 05:47:00,
2013-01-19 00:50:00,20.3,-2.4,30.01,NNE,30,0.0,7.0,36,0.00,,,0.00,meteohub,2013-01-19 05:50:00,
2013-01-19 00:52:00,20.5,-2.2,30.01,South,176,4.0,7.0,36,0.00,,,0.00,meteohub,2013-01-19 05:52:00,
2013-01-19 00:53:00,20.7,-2.7,30.01,SSE,159,3.0,7.0,35,0.00,,,0.00,meteohub,2013-01-19 05:53:00,
2013-01-19 00:55:00,21.0,-2.4,29.99,East,97,2.0,7.0,35,0.00,,,0.00,meteohub,2013-01-19 05:55:00,
2013-01-19 00:57:00,21.4,-2.6,29.99,West,276,3.0,7.0,34,0.00,,,0.00,meteohub,2013-01-19 05:57:00,
2013-01-19 00:58:00,21.4,-2.6,29.99,West,276,0.0,7.0,34,0.00,,,0.00,meteohub,2013-01-19 05:58:00,
2013-01-19 00:59:00,21.6,-2.6,29.99,SW,219,0.0,7.0,34,0.00,,,0.00,meteohub,2013-01-19 05:59:00,
2013-01-19 01:03:00,21.9,-2.2,29.99,SW,234,6.0,7.0,34,0.00,,,0.00,meteohub,2013-01-19 06:03:00,
2013-01-19 01:04:00,21.9,-2.2,29.99,WNW,284,5.0,8.0,34,0.00,,,0.00,meteohub,2013-01-19 06:04:00,
2013-01-19 01:05:00,22.1,-2.6,29.99,SSW,207,3.0,8.0,33,0.00,,,0.00,meteohub,2013-01-19 06:05:00,
2013-01-19 01:06:00,22.1,-2.6,29.99,West,259,8.0,8.0,33,0.00,,,0.00,meteohub,2013-01-19 06:06:00,
2013-01-19 01:08:00,22.5,-2.4,29.99,WSW,257,2.0,8.0,33,0.00,,,0.00,meteohub,2013-01-19 06:08:00,
2013-01-19 01:11:00,22.6,-2.2,29.99,SW,223,0.0,8.0,33,0.00,,,0.00,meteohub,2013-01-19 06:11:00,
2013-01-19 01:12:00,22.6,-2.2,29.99,WNW,292,4.0,8.0,33,0.00,,,0.00,meteohub,2013-01-19 06:12:00,
2013-01-19 01:15:00,22.8,-2.0,29.99,NNW,340,3.0,11.0,33,0.00,,,0.00,meteohub,2013-01-19 06:15:00,
2013-01-19 01:17:00,22.8,-2.0,29.99,NW,307,0.0,11.0,33,0.00,,,0.00,meteohub,2013-01-19 06:17:00,
2013-01-19 01:18:00,22.8,-2.0,29.99,West,263,0.0,11.0,33,0.00,,,0.00,meteohub,2013-01-19 06:18:00,
2013-01-19 01:20:00,22.8,-2.0,29.99,West,263,3.0,11.0,33,0.00,,,0.00,meteohub,2013-01-19 06:20:00,
2013-01-19 01:21:00,22.8,-2.0,29.99,West,279,0.0,11.0,33,0.00,,,0.00,meteohub,2013-01-19 06:21:00,
2013-01-19 01:23:00,23.0,-1.8,29.99,North,353,0.0,11.0,33,0.00,,,0.00,meteohub,2013-01-19 06:23:00,
2013-01-19 01:26:00,23.0,-1.8,29.99,SW,234,4.0,11.0,33,0.00,,,0.00,meteohub,2013-01-19 06:26:00,
2013-01-19 01:28:00,23.0,-1.8,29.99,NNE,20,2.0,11.0,33,0.00,,,0.00,meteohub,2013-01-19 06:28:00,
2013-01-19 01:32:00,23.2,-1.7,29.99,NNW,329,0.0,11.0,33,0.00,,,0.00,meteohub,2013-01-19 06:32:00,
2013-01-19 01:33:00,23.2,-1.7,29.99,SSW,213,3.0,8.0,33,0.00,,,0.00,meteohub,2013-01-19 06:33:00,
2013-01-19 01:35:00,23.2,-1.7,29.99,SW,229,2.0,8.0,33,0.00,,,0.00,meteohub,2013-01-19 06:35:00,
2013-01-19 01:36:00,23.4,-1.5,29.99,NNW,338,0.0,8.0,33,0.00,,,0.00,meteohub,2013-01-19 06:36:00,
2013-01-19 01:37:00,23.4,-1.5,29.99,NNW,331,0.0,8.0,33,0.00,,,0.00,meteohub,2013-01-19 06:37:00,
2013-01-19 01:42:00,23.5,-1.3,29.99,SSW,193,3.0,8.0,33,0.00,,,0.00,meteohub,2013-01-19 06:42:00,
2013-01-19 01:44:00,23.5,-1.3,29.99,South,183,3.0,8.0,33,0.00,,,0.00,meteohub,2013-01-19 06:44:00,
2013-01-19 01:48:00,23.5,-1.3,29.99,SSW,204,4.0,8.0,33,0.00,,,0.00,meteohub,2013-01-19 06:48:00,
2013-01-19 01:50:00,23.7,-1.1,29.99,SSE,156,0.0,8.0,33,0.00,,,0.00,meteohub,2013-01-19 06:50:00,
2013-01-19 01:53:00,23.7,-1.1,29.99,NNE,24,0.0,8.0,33,0.00,,,0.00,meteohub,2013-01-19 06:53:00,
2013-01-19 01:54:00,23.7,-1.1,29.99,North,4,0.0,8.0,33,0.00,,,0.00,meteohub,2013-01-19 06:54:00,
2013-01-19 01:55:00,23.7,-1.1,29.99,NW,306,3.0,8.0,33,0.00,,,0.00,meteohub,2013-01-19 06:55:00,
2013-01-19 01:57:00,23.7,-1.1,29.99,SW,219,0.0,8.0,33,0.00,,,0.00,meteohub,2013-01-19 06:57:00,
2013-01-19 01:59:00,23.7,-1.1,29.99,WNW,282,6.0,8.0,33,0.00,,,0.00,meteohub,2013-01-19 06:59:00,
2013-01-19 02:00:00,23.9,-1.1,29.99,West,275,0.0,8.0,33,0.00,,,0.00,meteohub,2013-01-19 07:00:00,
2013-01-19 02:01:00,23.9,-1.1,29.99,West,275,0.0,8.0,33,0.00,,,0.00,meteohub,2013-01-19 07:01:00,
2013-01-19 02:03:00,23.9,-1.1,29.99,South,183,0.0,8.0,33,0.00,,,0.00,meteohub,2013-01-19 07:03:00,
2013-01-19 02:05:00,23.9,-1.1,29.99,East,86,5.0,6.0,33,0.00,,,0.00,meteohub,2013-01-19 07:05:00,
2013-01-19 02:07:00,23.9,-1.1,29.99,SSW,204,3.0,6.0,33,0.00,,,0.00,meteohub,2013-01-19 07:07:00,
2013-01-19 02:08:00,23.9,-1.1,29.99,WSW,250,4.0,6.0,33,0.00,,,0.00,meteohub,2013-01-19 07:08:00,
2013-01-19 02:11:00,23.9,-1.1,29.96,SSW,200,0.0,6.0,33,0.00,,,0.00,meteohub,2013-01-19 07:11:00,
2013-01-19 02:12:00,23.9,-1.1,29.96,WNW,286,0.0,6.0,33,0.00,,,0.00,meteohub,2013-01-19 07:12:00,
2013-01-19 02:13:00,23.9,-1.1,29.96,SE,125,0.0,8.0,33,0.00,,,0.00,meteohub,2013-01-19 07:13:00,
2013-01-19 02:15:00,23.9,-1.1,29.96,NW,324,0.0,8.0,33,0.00,,,0.00,meteohub,2013-01-19 07:15:00,
2013-01-19 02:17:00,23.9,-1.1,29.96,NNE,21,0.0,8.0,33,0.00,,,0.00,meteohub,2013-01-19 07:17:00,
2013-01-19 02:18:00,23.9,-1.1,29.96,South,178,3.0,8.0,33,0.00,,,0.00,meteohub,2013-01-19 07:18:00,
2013-01-19 02:20:00,23.9,-1.1,29.96,NNW,341,0.0,8.0,33,0.00,,,0.00,meteohub,2013-01-19 07:20:00,
2013-01-19 02:22:00,23.9,-1.1,29.96,South,176,0.0,8.0,33,0.00,,,0.00,meteohub,2013-01-19 07:22:00,
2013-01-19 02:23:00,23.9,-1.1,29.96,South,176,0.0,8.0,33,0.00,,,0.00,meteohub,2013-01-19 07:23:00,
2013-01-19 02:26:00,23.9,-1.1,29.96,SSE,168,0.0,6.0,33,0.00,,,0.00,meteohub,2013-01-19 07:26:00,
2013-01-19 02:27:00,23.9,-1.1,29.96,WNW,283,6.0,6.0,33,0.00,,,0.00,meteohub,2013-01-19 07:27:00,
2013-01-19 02:28:00,23.7,-1.1,29.96,West,280,0.0,6.0,33,0.00,,,0.00,meteohub,2013-01-19 07:28:00,
2013-01-19 02:32:00,23.9,-1.1,29.96,South,190,0.0,6.0,33,0.00,,,0.00,meteohub,2013-01-19 07:32:00,
2013-01-19 02:33:00,23.9,-1.1,29.96,SSW,206,4.0,6.0,33,0.00,,,0.00,meteohub,2013-01-19 07:33:00,
2013-01-19 02:34:00,23.9,-1.1,29.96,NW,319,0.0,8.0,33,0.00,,,0.00,meteohub,2013-01-19 07:34:00,
2013-01-19 02:35:00,23.9,-1.1,29.96,NW,319,0.0,8.0,33,0.00,,,0.00,meteohub,2013-01-19 07:35:00,
2013-01-19 02:39:00,23.9,-1.1,29.96,West,264,0.0,8.0,33,0.00,,,0.00,meteohub,2013-01-19 07:39:00,
2013-01-19 02:40:00,23.9,-1.1,29.93,South,183,0.0,8.0,33,0.00,,,0.00,meteohub,2013-01-19 07:40:00,
2013-01-19 02:42:00,23.9,-1.1,29.93,SW,218,0.0,8.0,33,0.00,,,0.00,meteohub,2013-01-19 07:42:00,
2013-01-19 02:45:00,24.1,-0.9,29.93,SSW,197,0.0,5.0,33,0.00,,,0.00,meteohub,2013-01-19 07:45:00,
2013-01-19 02:46:00,24.1,-0.9,29.93,ENE,76,0.0,5.0,33,0.00,,,0.00,meteohub,2013-01-19 07:46:00,
2013-01-19 02:48:00,24.1,-0.9,29.93,North,349,0.0,5.0,33,0.00,,,0.00,meteohub,2013-01-19 07:48:00,
2013-01-19 02:49:00,24.1,-0.9,29.93,ENE,59,4.0,5.0,33,0.00,,,0.00,meteohub,2013-01-19 07:49:00,
2013-01-19 02:51:00,24.1,-0.2,29.93,NNW,341,10.0,10.0,34,0.00,,,0.00,meteohub,2013-01-19 07:51:00,
2013-01-19 02:52:00,24.1,-0.2,29.93,WNW,287,0.0,5.0,34,0.00,,,0.00,meteohub,2013-01-19 07:52:00,
2013-01-19 02:54:00,24.1,-0.2,29.93,SSW,200,4.0,10.0,34,0.00,,,0.00,meteohub,2013-01-19 07:54:00,
2013-01-19 02:55:00,24.1,-0.2,29.93,SSW,205,0.0,10.0,34,0.00,,,0.00,meteohub,2013-01-19 07:55:00,
2013-01-19 02:57:00,24.3,0.0,29.93,South,190,0.0,10.0,34,0.00,,,0.00,meteohub,2013-01-19 07:57:00,
2013-01-19 02:59:00,24.3,0.0,29.93,WNW,297,0.0,10.0,34,0.00,,,0.00,meteohub,2013-01-19 07:59:00,
2013-01-19 03:01:00,24.3,0.0,29.93,WNW,296,0.0,10.0,34,0.00,,,0.00,meteohub,2013-01-19 08:01:00,
2013-01-19 03:05:00,24.4,0.1,29.93,NNW,341,0.0,10.0,34,0.00,,,0.00,meteohub,2013-01-19 08:05:00,
2013-01-19 03:06:00,24.4,0.1,29.93,WNW,301,0.0,10.0,34,0.00,,,0.00,meteohub,2013-01-19 08:06:00,
2013-01-19 03:07:00,24.4,0.1,29.93,NW,310,4.0,10.0,34,0.00,,,0.00,meteohub,2013-01-19 08:07:00,
2013-01-19 03:11:00,24.4,0.7,29.93,West,271,0.0,10.0,35,0.00,,,0.00,meteohub,2013-01-19 08:11:00,
2013-01-19 03:13:00,24.6,0.9,29.93,WNW,284,3.0,6.0,35,0.00,,,0.00,meteohub,2013-01-19 08:13:00,
2013-01-19 03:14:00,24.6,0.9,29.93,SW,215,4.0,6.0,35,0.00,,,0.00,meteohub,2013-01-19 08:14:00,
2013-01-19 03:16:00,24.8,1.0,29.93,SE,144,0.0,6.0,35,0.00,,,0.00,meteohub,2013-01-19 08:16:00,
2013-01-19 03:17:00,24.8,1.0,29.93,North,3,0.0,6.0,35,0.00,,,0.00,meteohub,2013-01-19 08:17:00,
2013-01-19 03:20:00,25.0,0.5,29.93,South,188,0.0,6.0,34,0.00,,,0.00,meteohub,2013-01-19 08:20:00,
2013-01-19 03:23:00,25.2,0.7,29.93,WNW,285,0.0,6.0,34,0.00,,,0.00,meteohub,2013-01-19 08:23:00,
2013-01-19 03:25:00,25.2,0.7,29.93,WNW,285,0.0,5.0,34,0.00,,,0.00,meteohub,2013-01-19 08:25:00,
2013-01-19 03:27:00,25.2,0.7,29.93,East,85,2.0,5.0,34,0.00,,,0.00,meteohub,2013-01-19 08:27:00,
2013-01-19 03:29:00,25.3,0.9,29.93,SW,216,5.0,5.0,34,0.00,,,0.00,meteohub,2013-01-19 08:29:00,
2013-01-19 03:31:00,25.3,0.9,29.93,WNW,300,4.0,5.0,34,0.00,,,0.00,meteohub,2013-01-19 08:31:00,
2013-01-19 03:32:00,25.3,0.9,29.93,SW,236,7.0,7.0,34,0.00,,,0.00,meteohub,2013-01-19 08:32:00,
2013-01-19 03:35:00,25.5,1.6,29.93,NW,324,3.0,7.0,35,0.00,,,0.00,meteohub,2013-01-19 08:35:00,
2013-01-19 03:37:00,25.5,1.6,29.93,SSW,193,0.0,7.0,35,0.00,,,0.00,meteohub,2013-01-19 08:37:00,
2013-01-19 03:38:00,25.5,1.6,29.93,SW,236,0.0,7.0,35,0.00,,,0.00,meteohub,2013-01-19 08:38:00,
2013-01-19 03:42:00,25.5,1.6,29.93,SW,223,0.0,7.0,35,0.00,,,0.00,meteohub,2013-01-19 08:42:00,
2013-01-19 03:43:00,25.5,1.6,29.93,WNW,294,3.0,7.0,35,0.00,,,0.00,meteohub,2013-01-19 08:43:00,
2013-01-19 03:45:00,25.7,1.8,29.93,West,272,0.0,7.0,35,0.00,,,0.00,meteohub,2013-01-19 08:45:00,
2013-01-19 03:46:00,25.7,1.8,29.93,West,272,0.0,7.0,35,0.00,,,0.00,meteohub,2013-01-19 08:46:00,
2013-01-19 03:48:00,25.7,1.8,29.93,East,86,0.0,7.0,35,0.00,,,0.00,meteohub,2013-01-19 08:48:00,
2013-01-19 03:49:00,25.7,1.8,29.93,South,170,0.0,7.0,35,0.00,,,0.00,meteohub,2013-01-19 08:49:00,
2013-01-19 03:51:00,25.9,1.4,29.93,West,278,2.0,7.0,34,0.00,,,0.00,meteohub,2013-01-19 08:51:00,
2013-01-19 03:53:00,25.9,1.4,29.93,West,278,0.0,6.0,34,0.00,,,0.00,meteohub,2013-01-19 08:53:00,
2013-01-19 03:54:00,25.9,1.4,29.93,WNW,294,6.0,6.0,34,0.00,,,0.00,meteohub,2013-01-19 08:54:00,
2013-01-19 03:55:00,25.9,1.4,29.93,WSW,247,4.0,6.0,34,0.00,,,0.00,meteohub,2013-01-19 08:55:00,
2013-01-19 03:58:00,25.9,1.4,29.93,WSW,255,0.0,6.0,34,0.00,,,0.00,meteohub,2013-01-19 08:58:00,
2013-01-19 04:00:00,25.9,1.4,29.93,North,3,0.0,6.0,34,0.00,,,0.00,meteohub,2013-01-19 09:00:00,
2013-01-19 04:01:00,25.9,1.4,29.93,North,353,0.0,6.0,34,0.00,,,0.00,meteohub,2013-01-19 09:01:00,
2013-01-19 04:03:00,25.9,1.4,29.93,West,277,3.0,6.0,34,0.00,,,0.00,meteohub,2013-01-19 09:03:00,
2013-01-19 04:07:00,25.9,1.9,29.93,North,353,0.0,9.0,35,0.00,,,0.00,meteohub,2013-01-19 09:07:00,
2013-01-19 04:09:00,25.9,1.9,29.93,SE,131,2.0,9.0,35,0.00,,,0.00,meteohub,2013-01-19 09:09:00,
2013-01-19 04:12:00,25.9,1.9,29.90,NW,313,4.0,9.0,35,0.00,,,0.00,meteohub,2013-01-19 09:12:00,
2013-01-19 04:13:00,25.9,1.9,29.90,SSE,147,2.0,5.0,35,0.00,,,0.00,meteohub,2013-01-19 09:13:00,
2013-01-19 04:16:00,25.9,1.9,29.90,WSW,240,3.0,5.0,35,0.00,,,0.00,meteohub,2013-01-19 09:16:00,
2013-01-19 04:17:00,25.9,1.9,29.90,SW,222,2.0,5.0,35,0.00,,,0.00,meteohub,2013-01-19 09:17:00,
2013-01-19 04:18:00,25.9,1.9,29.90,WNW,282,4.0,5.0,35,0.00,,,0.00,meteohub,2013-01-19 09:18:00,
2013-01-19 04:19:00,25.9,2.7,29.90,SW,225,4.0,5.0,36,0.00,,,0.00,meteohub,2013-01-19 09:19:00,
2013-01-19 04:21:00,25.9,2.7,29.90,NW,315,0.0,5.0,36,0.00,,,0.00,meteohub,2013-01-19 09:21:00,
2013-01-19 04:24:00,25.9,2.7,29.90,NW,326,6.0,6.0,36,0.00,,,0.00,meteohub,2013-01-19 09:24:00,
2013-01-19 04:25:00,25.9,2.7,29.90,NNW,327,0.0,6.0,36,0.00,,,0.00,meteohub,2013-01-19 09:25:00,
2013-01-19 04:26:00,26.1,2.8,29.90,NNW,327,0.0,6.0,36,0.00,,,0.00,meteohub,2013-01-19 09:26:00,
2013-01-19 04:30:00,26.1,2.8,29.90,WNW,292,6.0,6.0,36,0.00,,,0.00,meteohub,2013-01-19 09:30:00,
2013-01-19 04:31:00,26.1,2.8,29.90,SW,223,2.0,6.0,36,0.00,,,0.00,meteohub,2013-01-19 09:31:00,
2013-01-19 04:32:00,26.1,2.8,29.90,North,3,3.0,6.0,36,0.00,,,0.00,meteohub,2013-01-19 09:32:00,
2013-01-19 04:34:00,26.2,2.8,29.90,SSW,199,0.0,8.0,36,0.00,,,0.00,meteohub,2013-01-19 09:34:00,
2013-01-19 04:35:00,26.2,2.8,29.90,NW,309,0.0,8.0,36,0.00,,,0.00,meteohub,2013-01-19 09:35:00,
2013-01-19 04:36:00,26.2,2.8,29.90,WNW,287,0.0,8.0,36,0.00,,,0.00,meteohub,2013-01-19 09:36:00,
2013-01-19 04:39:00,26.4,3.0,29.90,West,266,3.0,8.0,36,0.00,,,0.00,meteohub,2013-01-19 09:39:00,
2013-01-19 04:40:00,26.2,2.8,29.90,SW,221,3.0,8.0,36,0.00,,,0.00,meteohub,2013-01-19 09:40:00,
2013-01-19 04:42:00,26.4,3.0,29.90,SW,221,0.0,8.0,36,0.00,,,0.00,meteohub,2013-01-19 09:42:00,
2013-01-19 04:45:00,26.4,3.0,29.90,South,177,0.0,7.0,36,0.00,,,0.00,meteohub,2013-01-19 09:45:00,
2013-01-19 04:47:00,26.4,3.0,29.90,South,184,0.0,7.0,36,0.00,,,0.00,meteohub,2013-01-19 09:47:00,
2013-01-19 04:48:00,26.4,3.0,29.90,South,184,0.0,7.0,36,0.00,,,0.00,meteohub,2013-01-19 09:48:00,
2013-01-19 04:49:00,26.4,3.0,29.90,South,184,0.0,7.0,36,0.00,,,0.00,meteohub,2013-01-19 09:49:00,
2013-01-19 04:52:00,26.4,3.0,29.90,West,271,5.0,7.0,36,0.00,,,0.00,meteohub,2013-01-19 09:52:00,
2013-01-19 04:53:00,26.4,2.5,29.90,SSE,152,0.0,7.0,35,0.00,,,0.00,meteohub,2013-01-19 09:53:00,
2013-01-19 04:54:00,26.6,2.7,29.90,SSW,192,3.0,7.0,35,0.00,,,0.00,meteohub,2013-01-19 09:54:00,
2013-01-19 04:55:00,26.6,2.7,29.90,NNW,334,0.0,7.0,35,0.00,,,0.00,meteohub,2013-01-19 09:55:00,
2013-01-19 04:57:00,26.6,3.2,29.87,NNW,344,4.0,6.0,36,0.00,,,0.00,meteohub,2013-01-19 09:57:00,
2013-01-19 04:59:00,26.6,3.2,29.87,SW,215,0.0,6.0,36,0.00,,,0.00,meteohub,2013-01-19 09:59:00,
2013-01-19 05:00:00,26.6,3.2,29.87,West,279,0.0,6.0,36,0.00,,,0.00,meteohub,2013-01-19 10:00:00,
2013-01-19 05:02:00,26.6,3.2,29.87,SSW,207,0.0,6.0,36,0.00,,,0.00,meteohub,2013-01-19 10:02:00,
2013-01-19 05:03:00,26.6,3.2,29.87,WNW,289,0.0,6.0,36,0.00,,,0.00,meteohub,2013-01-19 10:03:00,
2013-01-19 05:04:00,26.6,3.2,29.87,NNW,327,6.0,6.0,36,0.00,,,0.00,meteohub,2013-01-19 10:04:00,
2013-01-19 05:06:00,26.6,3.2,29.87,NE,46,4.0,6.0,36,0.00,,,0.00,meteohub,2013-01-19 10:06:00,
2013-01-19 05:08:00,26.8,3.4,29.87,SSW,195,0.0,7.0,36,0.00,,,0.00,meteohub,2013-01-19 10:08:00,
2013-01-19 05:09:00,26.8,3.4,29.87,SE,143,0.0,7.0,36,0.00,,,0.00,meteohub,2013-01-19 10:09:00,
2013-01-19 05:14:00,27.0,3.6,29.87,SSW,207,0.0,7.0,36,0.00,,,0.00,meteohub,2013-01-19 10:14:00,
2013-01-19 05:15:00,27.0,4.1,29.87,West,278,0.0,7.0,37,0.00,,,0.00,meteohub,2013-01-19 10:15:00,
2013-01-19 05:16:00,27.0,4.1,29.87,SW,214,4.0,7.0,37,0.00,,,0.00,meteohub,2013-01-19 10:16:00,
2013-01-19 05:21:00,27.1,3.7,29.87,SSW,212,0.0,6.0,36,0.00,,,0.00,meteohub,2013-01-19 10:21:00,
2013-01-19 05:22:00,27.1,3.7,29.87,SSW,206,0.0,6.0,36,0.00,,,0.00,meteohub,2013-01-19 10:22:00,
2013-01-19 05:23:00,27.3,3.9,29.87,NW,305,7.0,7.0,36,0.00,,,0.00,meteohub,2013-01-19 10:23:00,
2013-01-19 05:26:00,27.5,4.1,29.87,North,353,3.0,6.0,36,0.00,,,0.00,meteohub,2013-01-19 10:26:00,
2013-01-19 05:28:00,27.5,4.1,29.87,West,279,4.0,6.0,36,0.00,,,0.00,meteohub,2013-01-19 10:28:00,
2013-01-19 05:30:00,27.7,4.3,29.87,West,275,0.0,6.0,36,0.00,,,0.00,meteohub,2013-01-19 10:30:00,
2013-01-19 05:32:00,27.7,4.3,29.87,North,0,0.0,8.0,36,0.00,,,0.00,meteohub,2013-01-19 10:32:00,
2013-01-19 05:33:00,27.7,4.3,29.87,North,0,0.0,8.0,36,0.00,,,0.00,meteohub,2013-01-19 10:33:00,
2013-01-19 05:38:00,27.9,4.3,29.87,WSW,249,10.0,10.0,36,0.00,,,0.00,meteohub,2013-01-19 10:38:00,
2013-01-19 05:39:00,27.9,4.3,29.87,WSW,247,3.0,8.0,36,0.00,,,0.00,meteohub,2013-01-19 10:39:00,
2013-01-19 05:41:00,27.9,4.3,29.87,WNW,300,3.0,8.0,36,0.00,,,0.00,meteohub,2013-01-19 10:41:00,
2013-01-19 05:44:00,28.0,4.5,29.87,SSW,195,4.0,8.0,36,0.00,,,0.00,meteohub,2013-01-19 10:44:00,
2013-01-19 05:45:00,28.0,4.5,29.87,West,270,0.0,8.0,36,0.00,,,0.00,meteohub,2013-01-19 10:45:00,
2013-01-19 05:46:00,28.0,4.5,29.87,WNW,289,3.0,8.0,36,0.00,,,0.00,meteohub,2013-01-19 10:46:00,
2013-01-19 05:49:00,28.2,4.6,29.87,North,353,0.0,10.0,36,0.00,,,0.00,meteohub,2013-01-19 10:49:00,
2013-01-19 05:53:00,28.2,4.6,29.87,SSE,155,0.0,10.0,36,0.00,,,0.00,meteohub,2013-01-19 10:53:00,
2013-01-19 05:54:00,28.2,4.6,29.87,NNW,336,0.0,10.0,36,0.00,,,0.00,meteohub,2013-01-19 10:54:00,
2013-01-19 05:55:00,28.2,4.6,29.87,West,274,2.0,10.0,36,0.00,,,0.00,meteohub,2013-01-19 10:55:00,
2013-01-19 06:00:00,28.2,4.6,29.87,SSW,206,0.0,5.0,36,0.00,,,0.00,meteohub,2013-01-19 11:00:00,
2013-01-19 06:01:00,28.2,4.6,29.87,West,267,5.0,5.0,36,0.00,,,0.00,meteohub,2013-01-19 11:01:00,
2013-01-19 06:02:00,28.2,4.6,29.87,West,267,0.0,5.0,36,0.00,,,0.00,meteohub,2013-01-19 11:02:00,
2013-01-19 06:05:00,28.4,5.4,29.87,West,267,0.0,5.0,37,0.00,,,0.00,meteohub,2013-01-19 11:05:00,
2013-01-19 06:08:00,28.4,5.4,29.87,SW,230,4.0,5.0,37,0.00,,,0.00,meteohub,2013-01-19 11:08:00,
2013-01-19 06:09:00,28.4,5.4,29.87,West,277,0.0,5.0,37,0.00,,,0.00,meteohub,2013-01-19 11:09:00,
2013-01-19 06:10:00,28.6,5.0,29.87,West,264,0.0,5.0,36,0.00,,,0.00,meteohub,2013-01-19 11:10:00,
2013-01-19 06:14:00,28.6,5.0,29.87,North,353,0.0,8.0,36,0.00,,,0.00,meteohub,2013-01-19 11:14:00,
2013-01-19 07:49:00,30.4,7.9,29.84,West,276,3.0,6.0,38,0.00,,,0.00,meteohub,2013-01-19 12:49:00,
2013-01-19 07:50:00,30.4,7.9,29.84,SW,220,3.0,6.0,38,0.00,,,0.00,meteohub,2013-01-19 12:50:00,
2013-01-19 07:51:00,30.4,7.9,29.84,South,189,3.0,12.0,38,0.00,,,0.00,meteohub,2013-01-19 12:51:00,
2013-01-19 07:56:00,30.9,8.2,29.84,SSW,205,5.0,12.0,38,0.00,,,0.00,meteohub,2013-01-19 12:56:00,
2013-01-19 07:57:00,30.9,8.2,29.84,NW,307,0.0,12.0,38,0.00,,,0.00,meteohub,2013-01-19 12:57:00,
2013-01-19 07:58:00,31.1,8.4,29.84,SSW,211,5.0,12.0,38,0.00,,,0.00,meteohub,2013-01-19 12:58:00,
2013-01-19 08:02:00,31.1,8.4,29.84,SE,139,0.0,12.0,38,0.00,,,0.00,meteohub,2013-01-19 13:02:00,
2013-01-19 08:03:00,31.3,8.6,29.84,NW,326,4.0,12.0,38,0.00,,,0.00,meteohub,2013-01-19 13:03:00,
2013-01-19 08:04:00,31.3,8.6,29.84,North,0,0.0,12.0,38,0.00,,,0.00,meteohub,2013-01-19 13:04:00,
2013-01-19 08:05:00,31.3,8.6,29.84,ESE,109,0.0,12.0,38,0.00,,,0.00,meteohub,2013-01-19 13:05:00,
2013-01-19 08:09:00,31.5,8.8,29.84,WNW,300,3.0,12.0,38,0.00,,,0.00,meteohub,2013-01-19 13:09:00,
2013-01-19 08:10:00,31.5,8.8,29.84,NW,324,5.0,12.0,38,0.00,,,0.00,meteohub,2013-01-19 13:10:00,
2013-01-19 08:11:00,31.5,8.8,29.84,SSW,203,3.0,12.0,38,0.00,,,0.00,meteohub,2013-01-19 13:11:00,
2013-01-19 08:12:00,31.5,8.8,29.84,SW,228,5.0,8.0,38,0.00,,,0.00,meteohub,2013-01-19 13:12:00,
2013-01-19 08:15:00,31.8,9.1,29.84,SSE,149,0.0,8.0,38,0.00,,,0.00,meteohub,2013-01-19 13:15:00,
2013-01-19 08:16:00,31.8,9.1,29.84,SSE,159,0.0,8.0,38,0.00,,,0.00,meteohub,2013-01-19 13:16:00,
2013-01-19 08:17:00,32.0,9.3,29.84,SW,236,0.0,8.0,38,0.00,,,0.00,meteohub,2013-01-19 13:17:00,
2013-01-19 08:21:00,32.2,9.5,29.84,ENE,70,4.0,8.0,38,0.00,,,0.00,meteohub,2013-01-19 13:21:00,
2013-01-19 08:22:00,32.4,9.5,29.84,South,182,4.0,8.0,38,0.00,,,0.00,meteohub,2013-01-19 13:22:00,
2013-01-19 08:24:00,32.5,9.7,29.84,West,260,4.0,8.0,38,0.00,,,0.00,meteohub,2013-01-19 13:24:00,
2013-01-19 08:28:00,32.5,9.7,29.84,South,191,3.0,6.0,38,0.00,,,0.00,meteohub,2013-01-19 13:28:00,
2013-01-19 08:29:00,32.5,9.7,29.84,SSE,163,3.0,6.0,38,0.00,,,0.00,meteohub,2013-01-19 13:29:00,
2013-01-19 08:32:00,32.7,9.9,29.84,North,353,2.0,6.0,38,0.00,,,0.00,meteohub,2013-01-19 13:32:00,
2013-01-19 08:34:00,32.7,9.9,29.84,WSW,252,4.0,6.0,38,0.00,,,0.00,meteohub,2013-01-19 13:34:00,
2013-01-19 08:35:00,32.7,9.3,29.84,WNW,299,0.0,6.0,37,0.00,,,0.00,meteohub,2013-01-19 13:35:00,
2013-01-19 08:39:00,33.1,9.7,29.84,SW,228,4.0,6.0,37,0.00,,,0.00,meteohub,2013-01-19 13:39:00,
2013-01-19 08:41:00,33.1,9.7,29.84,West,259,8.0,8.0,37,0.00,,,0.00,meteohub,2013-01-19 13:41:00,
2013-01-19 08:43:00,33.1,10.2,29.84,WSW,254,11.0,11.0,38,0.00,,,0.00,meteohub,2013-01-19 13:43:00,
2013-01-19 08:44:00,33.3,10.4,29.84,NW,304,4.0,8.0,38,0.00,,,0.00,meteohub,2013-01-19 13:44:00,
2013-01-19 08:47:00,33.3,10.4,29.84,WNW,295,6.0,8.0,38,0.00,,,0.00,meteohub,2013-01-19 13:47:00,
2013-01-19 08:48:00,33.3,10.4,29.84,West,280,5.0,8.0,38,0.00,,,0.00,meteohub,2013-01-19 13:48:00,
2013-01-19 08:50:00,33.6,10.8,29.84,WSW,258,3.0,8.0,38,0.00,,,0.00,meteohub,2013-01-19 13:50:00,
2013-01-19 08:53:00,33.8,10.2,29.84,SSW,201,6.0,14.0,37,0.00,,,0.00,meteohub,2013-01-19 13:53:00,
2013-01-19 08:54:00,34.0,10.4,29.84,WSW,241,4.0,14.0,37,0.00,,,0.00,meteohub,2013-01-19 13:54:00,
2013-01-19 08:56:00,34.2,10.6,29.84,SW,226,2.0,14.0,37,0.00,,,0.00,meteohub,2013-01-19 13:56:00,
2013-01-19 08:58:00,34.3,10.8,29.84,SSE,153,6.0,14.0,37,0.00,,,0.00,meteohub,2013-01-19 13:58:00,
2013-01-19 09:00:00,34.5,10.2,29.84,WNW,290,9.0,10.0,36,0.00,,,0.00,meteohub,2013-01-19 14:00:00,
2013-01-19 09:03:00,34.9,11.3,29.84,West,264,3.0,10.0,37,0.00,,,0.00,meteohub,2013-01-19 14:03:00,
2013-01-19 09:05:00,34.9,11.3,29.84,WSW,252,5.0,10.0,37,0.00,,,0.00,meteohub,2013-01-19 14:05:00,
2013-01-19 09:07:00,34.9,11.3,29.84,NW,305,6.0,10.0,37,0.00,,,0.00,meteohub,2013-01-19 14:07:00,
2013-01-19 09:09:00,35.2,10.9,29.84,NNW,332,3.0,10.0,36,0.00,,,0.00,meteohub,2013-01-19 14:09:00,
2013-01-19 09:11:00,35.4,11.1,29.84,South,183,3.0,9.0,36,0.00,,,0.00,meteohub,2013-01-19 14:11:00,
2013-01-19 09:12:00,35.4,11.1,29.84,WSW,239,6.0,9.0,36,0.00,,,0.00,meteohub,2013-01-19 14:12:00,
2013-01-19 09:15:00,35.6,10.6,29.84,North,357,5.0,9.0,35,0.00,,,0.00,meteohub,2013-01-19 14:15:00,
2013-01-19 09:16:00,35.6,10.6,29.84,WSW,249,5.0,9.0,35,0.00,,,0.00,meteohub,2013-01-19 14:16:00,
2013-01-19 09:17:00,35.8,10.2,29.84,South,175,3.0,9.0,34,0.00,,,0.00,meteohub,2013-01-19 14:17:00,
2013-01-19 09:21:00,35.8,10.2,29.84,SSW,195,4.0,9.0,34,0.00,,,0.00,meteohub,2013-01-19 14:21:00,
2013-01-19 09:22:00,36.0,10.2,29.84,SE,138,4.0,9.0,34,0.00,,,0.00,meteohub,2013-01-19 14:22:00,
2013-01-19 09:27:00,36.1,10.4,29.81,NNE,15,0.0,9.0,34,0.00,,,0.00,meteohub,2013-01-19 14:27:00,
2013-01-19 09:28:00,36.1,10.4,29.81,SSE,152,4.0,9.0,34,0.00,,,0.00,meteohub,2013-01-19 14:28:00,
2013-01-19 09:32:00,36.3,10.6,29.81,South,171,3.0,9.0,34,0.00,,,0.00,meteohub,2013-01-19 14:32:00,
2013-01-19 09:34:00,36.3,10.6,29.81,South,174,4.0,9.0,34,0.00,,,0.00,meteohub,2013-01-19 14:34:00,
2013-01-19 09:37:00,36.5,10.8,29.81,West,279,5.0,9.0,34,0.00,,,0.00,meteohub,2013-01-19 14:37:00,
2013-01-19 09:40:00,36.7,10.9,29.81,SSE,162,4.0,9.0,34,0.00,,,0.00,meteohub,2013-01-19 14:40:00,
2013-01-19 09:43:00,36.9,11.1,29.81,NNW,338,3.0,9.0,34,0.00,,,0.00,meteohub,2013-01-19 14:43:00,
2013-01-19 09:44:00,36.9,11.1,29.81,South,177,3.0,9.0,34,0.00,,,0.00,meteohub,2013-01-19 14:44:00,
2013-01-19 09:48:00,37.0,11.3,29.81,WNW,289,5.0,9.0,34,0.00,,,0.00,meteohub,2013-01-19 14:48:00,
2013-01-19 09:49:00,37.2,11.5,29.81,North,353,3.0,9.0,34,0.00,,,0.00,meteohub,2013-01-19 14:49:00,
2013-01-19 09:53:00,37.4,10.9,29.81,West,263,2.0,9.0,33,0.00,,,0.00,meteohub,2013-01-19 14:53:00,
2013-01-19 09:55:00,37.4,10.9,29.81,SW,215,13.0,13.0,33,0.00,,,0.00,meteohub,2013-01-19 14:55:00,
2013-01-19 09:59:00,37.6,11.1,29.81,SSW,197,4.0,9.0,33,0.00,,,0.00,meteohub,2013-01-19 14:59:00,
2013-01-19 10:01:00,37.6,11.1,29.81,NW,316,0.0,9.0,33,0.00,,,0.00,meteohub,2013-01-19 15:01:00,
2013-01-19 10:02:00,37.6,11.7,29.81,West,264,0.0,9.0,34,0.00,,,0.00,meteohub,2013-01-19 15:02:00,
2013-01-19 10:04:00,37.8,11.8,29.81,NE,56,0.0,13.0,34,0.00,,,0.00,meteohub,2013-01-19 15:04:00,
2013-01-19 10:05:00,37.8,11.3,29.81,NW,326,8.0,13.0,33,0.00,,,0.00,meteohub,2013-01-19 15:05:00,
2013-01-19 10:08:00,37.8,11.3,29.81,WNW,292,9.0,13.0,33,0.00,,,0.00,meteohub,2013-01-19 15:08:00,
2013-01-19 10:10:00,37.9,11.3,29.81,South,173,5.0,13.0,33,0.00,,,0.00,meteohub,2013-01-19 15:10:00,
2013-01-19 10:11:00,37.9,11.3,29.81,SSW,205,2.0,13.0,33,0.00,,,0.00,meteohub,2013-01-19 15:11:00,
2013-01-19 10:16:00,37.9,11.3,29.81,ENE,69,4.0,9.0,33,0.00,,,0.00,meteohub,2013-01-19 15:16:00,
2013-01-19 10:17:00,38.1,11.5,29.81,SSW,208,0.0,9.0,33,0.00,,,0.00,meteohub,2013-01-19 15:17:00,
2013-01-19 10:18:00,38.1,11.5,29.81,NNW,334,0.0,9.0,33,0.00,,,0.00,meteohub,2013-01-19 15:18:00,
2013-01-19 10:22:00,38.3,11.7,29.81,SSW,195,3.0,9.0,33,0.00,,,0.00,meteohub,2013-01-19 15:22:00,
2013-01-19 10:23:00,38.3,10.9,29.81,SSW,195,2.0,9.0,32,0.00,,,0.00,meteohub,2013-01-19 15:23:00,
2013-01-19 10:24:00,38.3,11.7,29.81,NW,317,2.0,9.0,33,0.00,,,0.00,meteohub,2013-01-19 15:24:00,
2013-01-19 10:28:00,38.5,11.1,29.81,NNW,333,3.0,9.0,32,0.00,,,0.00,meteohub,2013-01-19 15:28:00,
2013-01-19 10:29:00,38.5,11.1,29.81,NE,49,0.0,9.0,32,0.00,,,0.00,meteohub,2013-01-19 15:29:00,
2013-01-19 10:30:00,38.5,11.1,29.81,NW,311,6.0,9.0,32,0.00,,,0.00,meteohub,2013-01-19 15:30:00,
2013-01-19 10:31:00,38.7,11.3,29.81,WNW,286,6.0,9.0,32,0.00,,,0.00,meteohub,2013-01-19 15:31:00,
2013-01-19 10:33:00,38.7,11.3,29.81,NNW,335,3.0,11.0,32,0.00,,,0.00,meteohub,2013-01-19 15:33:00,
2013-01-19 10:35:00,38.8,11.5,29.81,NW,308,0.0,11.0,32,0.00,,,0.00,meteohub,2013-01-19 15:35:00,
2013-01-19 10:36:00,38.8,10.8,29.81,South,189,2.0,11.0,31,0.00,,,0.00,meteohub,2013-01-19 15:36:00,
2013-01-19 10:37:00,38.8,11.5,29.81,West,273,3.0,11.0,32,0.00,,,0.00,meteohub,2013-01-19 15:37:00,
2013-01-19 10:41:00,39.2,11.1,29.78,NW,309,5.0,11.0,31,0.00,,,0.00,meteohub,2013-01-19 15:41:00,
2013-01-19 10:42:00,39.2,11.8,29.78,SSW,210,0.0,11.0,32,0.00,,,0.00,meteohub,2013-01-19 15:42:00,
2013-01-19 10:43:00,39.2,11.1,29.78,North,357,3.0,11.0,31,0.00,,,0.00,meteohub,2013-01-19 15:43:00,
2013-01-19 10:47:00,39.2,11.1,29.78,WNW,282,4.0,8.0,31,0.00,,,0.00,meteohub,2013-01-19 15:47:00,
2013-01-19 10:48:00,39.4,11.3,29.78,South,190,0.0,8.0,31,0.00,,,0.00,meteohub,2013-01-19 15:48:00,
2013-01-19 10:49:00,39.4,11.3,29.78,South,190,0.0,8.0,31,0.00,,,0.00,meteohub,2013-01-19 15:49:00,
2013-01-19 10:53:00,39.7,10.8,29.78,NW,321,8.0,8.0,30,0.00,,,0.00,meteohub,2013-01-19 15:53:00,
2013-01-19 10:54:00,39.7,11.5,29.78,NW,308,2.0,8.0,31,0.00,,,0.00,meteohub,2013-01-19 15:54:00,
2013-01-19 10:55:00,39.7,11.5,29.78,SSE,165,2.0,8.0,31,0.00,,,0.00,meteohub,2013-01-19 15:55:00,
2013-01-19 10:59:00,39.9,11.7,29.78,NW,306,0.0,8.0,31,0.00,,,0.00,meteohub,2013-01-19 15:59:00,
2013-01-19 11:00:00,40.1,11.1,29.78,NNW,335,5.0,8.0,30,0.00,,,0.00,meteohub,2013-01-19 16:00:00,
2013-01-19 11:04:00,40.3,12.0,29.78,South,179,0.0,8.0,31,0.00,,,0.00,meteohub,2013-01-19 16:04:00,
2013-01-19 11:05:00,40.3,12.0,29.78,South,178,0.0,8.0,31,0.00,,,0.00,meteohub,2013-01-19 16:05:00,
2013-01-19 11:06:00,40.3,12.0,29.78,WNW,291,4.0,8.0,31,0.00,,,0.00,meteohub,2013-01-19 16:06:00,
2013-01-19 11:10:00,40.5,11.5,29.78,South,180,0.0,8.0,30,0.00,,,0.00,meteohub,2013-01-19 16:10:00,
2013-01-19 11:11:00,40.5,11.5,29.78,WSW,256,3.0,8.0,30,0.00,,,0.00,meteohub,2013-01-19 16:11:00,
2013-01-19 11:12:00,40.6,11.7,29.78,WSW,241,3.0,8.0,30,0.00,,,0.00,meteohub,2013-01-19 16:12:00,
2013-01-19 11:16:00,40.6,11.7,29.78,West,272,4.0,8.0,30,0.00,,,0.00,meteohub,2013-01-19 16:16:00,
2013-01-19 11:17:00,40.6,11.7,29.78,WNW,294,3.0,8.0,30,0.00,,,0.00,meteohub,2013-01-19 16:17:00,
2013-01-19 11:21:00,41.0,11.8,29.78,SSE,165,4.0,8.0,30,0.00,,,0.00,meteohub,2013-01-19 16:21:00,
2013-01-19 11:22:00,41.0,11.8,29.78,South,182,3.0,8.0,30,0.00,,,0.00,meteohub,2013-01-19 16:22:00,
2013-01-19 11:23:00,41.0,11.8,29.78,NNW,338,0.0,8.0,30,0.00,,,0.00,meteohub,2013-01-19 16:23:00,
2013-01-19 11:27:00,41.4,11.5,29.75,West,269,3.0,13.0,29,0.00,,,0.00,meteohub,2013-01-19 16:27:00,
2013-01-19 11:28:00,41.4,11.5,29.75,WNW,282,0.0,13.0,29,0.00,,,0.00,meteohub,2013-01-19 16:28:00,
2013-01-19 11:29:00,41.4,11.5,29.75,NW,325,5.0,13.0,29,0.00,,,0.00,meteohub,2013-01-19 16:29:00,
2013-01-19 11:33:00,41.5,11.7,29.75,WSW,258,0.0,13.0,29,-99.99,,,0.00,meteohub,2013-01-19 16:33:00,
2013-01-19 11:34:00,41.5,11.7,29.75,North,350,4.0,8.0,29,-99.99,,,0.00,meteohub,2013-01-19 16:34:00,
2013-01-19 11:35:00,41.5,11.7,29.75,WNW,299,4.0,8.0,29,-99.99,,,0.00,meteohub,2013-01-19 16:35:00,
2013-01-19 11:39:00,41.7,11.8,29.75,West,277,2.0,8.0,29,-99.99,,,0.00,meteohub,2013-01-19 16:39:00,
2013-01-19 11:40:00,41.7,11.8,29.72,West,275,3.0,8.0,29,-99.99,,,0.00,meteohub,2013-01-19 16:40:00,
2013-01-19 11:41:00,41.7,11.8,29.72,SSW,210,10.0,10.0,29,-99.99,,,0.00,meteohub,2013-01-19 16:41:00,
2013-01-19 11:44:00,41.9,12.0,29.72,WSW,250,3.0,6.0,29,-99.99,,,0.00,meteohub,2013-01-19 16:44:00,
2013-01-19 11:45:00,41.9,12.0,29.72,NNW,348,0.0,6.0,29,-99.99,,,0.00,meteohub,2013-01-19 16:45:00,
2013-01-19 11:46:00,41.9,12.0,29.72,NNW,348,0.0,6.0,29,-99.99,,,0.00,meteohub,2013-01-19 16:46:00,
2013-01-19 11:47:00,41.9,12.0,29.72,West,279,2.0,6.0,29,-99.99,,,0.00,meteohub,2013-01-19 16:47:00,
2013-01-19 11:50:00,42.1,12.0,29.72,WNW,287,0.0,6.0,29,-99.99,,,0.00,meteohub,2013-01-19 16:50:00,
2013-01-19 11:51:00,42.1,12.0,29.72,SSW,192,6.0,6.0,29,-99.99,,,0.00,meteohub,2013-01-19 16:51:00,
2013-01-19 11:52:00,42.1,12.0,29.72,SSW,194,0.0,6.0,29,-99.99,,,0.00,meteohub,2013-01-19 16:52:00,
2013-01-19 11:57:00,42.1,12.0,29.72,WNW,287,7.0,10.0,29,-99.99,,,0.00,meteohub,2013-01-19 16:57:00,
2013-01-19 11:58:00,42.1,12.0,29.72,WNW,302,4.0,10.0,29,-99.99,,,0.00,meteohub,2013-01-19 16:58:00,
2013-01-19 11:59:00,42.1,12.0,29.72,NE,56,3.0,10.0,29,-99.99,,,0.00,meteohub,2013-01-19 16:59:00,
2013-01-19 12:00:00,42.1,12.0,29.72,WNW,298,4.0,10.0,29,-99.99,,,0.00,meteohub,2013-01-19 17:00:00,
2013-01-19 12:03:00,42.1,12.0,29.72,WNW,298,8.0,10.0,29,-99.99,,,0.00,meteohub,2013-01-19 17:03:00,
2013-01-19 12:06:00,42.1,12.0,29.72,NNW,341,0.0,8.0,29,-99.99,,,0.00,meteohub,2013-01-19 17:06:00,
2013-01-19 12:07:00,42.1,12.0,29.72,NW,321,3.0,8.0,29,-99.99,,,0.00,meteohub,2013-01-19 17:07:00,
2013-01-19 12:08:00,42.1,12.0,29.72,NW,320,3.0,8.0,29,-99.99,,,0.00,meteohub,2013-01-19 17:08:00,
2013-01-19 12:12:00,42.3,12.2,29.72,NNE,30,0.0,8.0,29,-99.99,,,0.00,meteohub,2013-01-19 17:12:00,
2013-01-19 12:13:00,42.3,12.2,29.72,NNE,12,3.0,8.0,29,-99.99,,,0.00,meteohub,2013-01-19 17:13:00,
2013-01-19 12:20:00,42.4,12.4,29.72,WNW,294,5.0,8.0,29,-99.99,,,0.00,meteohub,2013-01-19 17:20:00,
2013-01-19 12:21:00,42.4,12.4,29.72,South,178,0.0,8.0,29,-99.99,,,0.00,meteohub,2013-01-19 17:21:00,
2013-01-19 12:25:00,42.4,12.4,29.69,WNW,292,2.0,8.0,29,-99.99,,,0.00,meteohub,2013-01-19 17:25:00,
2013-01-19 12:30:00,42.6,12.6,29.69,WNW,282,0.0,9.0,29,-99.99,,,0.00,meteohub,2013-01-19 17:30:00,
2013-01-19 12:33:00,42.6,12.6,29.69,WSW,250,0.0,9.0,29,-99.99,,,0.00,meteohub,2013-01-19 17:33:00,
2013-01-19 12:38:00,42.8,12.0,29.69,SW,225,0.0,11.0,28,-99.99,,,0.00,meteohub,2013-01-19 17:38:00,
2013-01-19 12:39:00,42.8,12.0,29.69,North,0,0.0,11.0,28,-99.99,,,0.00,meteohub,2013-01-19 17:39:00,
2013-01-19 12:44:00,43.0,12.0,29.69,WSW,244,3.0,11.0,28,-99.99,,,0.00,meteohub,2013-01-19 17:44:00,
2013-01-19 12:45:00,43.0,12.0,29.69,West,276,0.0,11.0,28,-99.99,,,0.00,meteohub,2013-01-19 17:45:00,
2013-01-19 12:49:00,43.0,12.0,29.69,WNW,301,5.0,11.0,28,-99.99,,,0.00,meteohub,2013-01-19 17:49:00,
2013-01-19 12:52:00,43.0,12.0,29.69,West,273,0.0,11.0,28,-99.99,,,0.00,meteohub,2013-01-19 17:52:00,
2013-01-19 12:54:00,43.0,12.0,29.69,SW,230,3.0,6.0,28,-99.99,,,0.00,meteohub,2013-01-19 17:54:00,
2013-01-19 12:59:00,43.0,12.0,29.69,SE,141,0.0,6.0,28,-99.99,,,0.00,meteohub,2013-01-19 17:59:00,
2013-01-19 13:00:00,43.0,12.0,29.69,WNW,300,3.0,6.0,28,-99.99,,,0.00,meteohub,2013-01-19 18:00:00,
2013-01-19 13:04:00,43.2,12.2,29.69,NW,319,4.0,6.0,28,-99.99,,,0.00,meteohub,2013-01-19 18:04:00,
2013-01-19 13:10:00,43.3,12.4,29.69,WNW,291,3.0,15.0,28,-99.99,,,0.00,meteohub,2013-01-19 18:10:00,
2013-01-19 13:14:00,43.5,12.6,29.69,NNW,327,3.0,15.0,28,-99.99,,,0.00,meteohub,2013-01-19 18:14:00,
2013-01-19 13:15:00,43.7,12.7,29.69,West,262,4.0,8.0,28,-99.99,,,0.00,meteohub,2013-01-19 18:15:00,
2013-01-19 13:19:00,43.7,12.7,29.69,West,270,0.0,8.0,28,-99.99,,,0.00,meteohub,2013-01-19 18:19:00,
2013-01-19 13:23:00,43.7,12.7,29.69,West,270,0.0,8.0,28,-99.99,,,0.00,meteohub,2013-01-19 18:23:00,
2013-01-19 13:26:00,44.1,13.1,29.69,SSW,199,3.0,11.0,28,-99.99,,,0.00,meteohub,2013-01-19 18:26:00,
2013-01-19 13:34:00,44.1,13.1,29.69,SSW,208,3.0,11.0,28,-99.99,,,0.00,meteohub,2013-01-19 18:34:00,
2013-01-19 13:35:00,44.1,13.1,29.69,West,268,8.0,8.0,28,-99.99,,,0.00,meteohub,2013-01-19 18:35:00,
2013-01-19 13:40:00,44.2,13.1,29.66,NW,315,0.0,8.0,28,-99.99,,,0.00,meteohub,2013-01-19 18:40:00,
2013-01-19 13:41:00,44.2,13.1,29.66,East,80,4.0,8.0,28,-99.99,,,0.00,meteohub,2013-01-19 18:41:00,
2013-01-19 13:49:00,44.2,13.1,29.66,North,353,0.0,8.0,28,-99.99,,,0.00,meteohub,2013-01-19 18:49:00,
2013-01-19 13:55:00,44.6,12.7,29.66,NW,310,3.0,12.0,27,-99.99,,,0.00,meteohub,2013-01-19 18:55:00,
2013-01-19 13:56:00,44.6,12.7,29.66,East,96,4.0,12.0,27,-99.99,,,0.00,meteohub,2013-01-19 18:56:00,
2013-01-19 14:00:00,44.4,13.3,29.66,ESE,117,3.0,12.0,28,-99.99,,,0.00,meteohub,2013-01-19 19:00:00,
2013-01-19 14:03:00,44.6,10.9,29.66,NW,321,3.0,12.0,25,-99.99,,,0.00,meteohub,2013-01-19 19:03:00,
2013-01-19 14:05:00,44.6,12.7,29.66,SW,220,0.0,10.0,27,-99.99,,,0.00,meteohub,2013-01-19 19:05:00,
2013-01-19 14:11:00,44.6,12.7,29.66,NW,306,6.0,10.0,27,-99.99,,,0.00,meteohub,2013-01-19 19:11:00,
2013-01-19 14:18:00,44.6,10.9,29.66,West,269,4.0,10.0,25,-99.99,,,0.00,meteohub,2013-01-19 19:18:00,
2013-01-19 14:19:00,44.6,10.9,29.66,WNW,294,5.0,10.0,25,-99.99,,,0.00,meteohub,2013-01-19 19:19:00,
2013-01-19 14:27:00,44.6,10.9,29.66,SSE,153,0.0,10.0,25,-99.99,,,0.00,meteohub,2013-01-19 19:27:00,
2013-01-19 14:28:00,44.4,10.8,29.66,NNW,329,3.0,13.0,25,-99.99,,,0.00,meteohub,2013-01-19 19:28:00,
2013-01-19 14:32:00,44.4,10.8,29.66,West,278,3.0,13.0,25,-99.99,,,0.00,meteohub,2013-01-19 19:32:00,
2013-01-19 14:33:00,44.4,10.8,29.66,SSE,162,3.0,13.0,25,-99.99,,,0.00,meteohub,2013-01-19 19:33:00,
2013-01-19 14:37:00,44.6,10.9,29.66,West,261,3.0,13.0,25,-99.99,,,0.00,meteohub,2013-01-19 19:37:00,
2013-01-19 14:38:00,44.6,10.9,29.66,West,277,5.0,13.0,25,-99.99,,,0.00,meteohub,2013-01-19 19:38:00,
2013-01-19 14:43:00,44.4,10.8,29.66,SW,214,3.0,9.0,25,-99.99,,,0.00,meteohub,2013-01-19 19:43:00,
2013-01-19 14:44:00,44.4,10.8,29.66,WNW,302,11.0,11.0,25,-99.99,,,0.00,meteohub,2013-01-19 19:44:00,
2013-01-19 14:49:00,44.6,10.9,29.66,NW,310,8.0,9.0,25,-99.99,,,0.00,meteohub,2013-01-19 19:49:00,
2013-01-19 14:50:00,44.6,10.9,29.66,South,190,3.0,9.0,25,-99.99,,,0.00,meteohub,2013-01-19 19:50:00,
2013-01-19 14:55:00,44.2,10.6,29.66,NW,305,0.0,11.0,25,-99.99,,,0.00,meteohub,2013-01-19 19:55:00,
2013-01-19 15:02:00,44.2,10.6,29.66,NW,324,0.0,11.0,25,-99.99,,,0.00,meteohub,2013-01-19 20:02:00,
2013-01-19 15:09:00,43.9,12.9,29.66,South,175,3.0,11.0,28,-99.99,,,0.00,meteohub,2013-01-19 20:09:00,
2013-01-19 15:10:00,43.9,12.9,29.66,NNW,329,3.0,11.0,28,-99.99,,,0.00,meteohub,2013-01-19 20:10:00,
2013-01-19 15:15:00,44.1,13.1,29.66,WNW,300,8.0,11.0,28,-99.99,,,0.00,meteohub,2013-01-19 20:15:00,
2013-01-19 15:22:00,44.1,13.1,29.66,WNW,294,6.0,11.0,28,-99.99,,,0.00,meteohub,2013-01-19 20:22:00,
2013-01-19 15:25:00,43.9,12.9,29.66,West,277,11.0,13.0,28,-99.99,,,0.00,meteohub,2013-01-19 20:25:00,
2013-01-19 15:31:00,43.9,12.9,29.66,North,357,3.0,13.0,28,-99.99,,,0.00,meteohub,2013-01-19 20:31:00,
2013-01-19 15:35:00,43.9,12.9,29.66,SE,146,0.0,13.0,28,-99.99,,,0.00,meteohub,2013-01-19 20:35:00,
2013-01-19 15:37:00,43.7,12.7,29.66,WSW,247,0.0,13.0,28,-99.99,,,0.00,meteohub,2013-01-19 20:37:00,
2013-01-19 15:46:00,43.5,12.6,29.66,SSE,162,3.0,13.0,28,-99.99,,,0.00,meteohub,2013-01-19 20:46:00,
2013-01-19 15:47:00,43.5,12.6,29.66,ENE,58,0.0,9.0,28,-99.99,,,0.00,meteohub,2013-01-19 20:47:00,
2013-01-19 15:51:00,43.3,12.4,29.66,WSW,248,2.0,9.0,28,-99.99,,,0.00,meteohub,2013-01-19 20:51:00,
2013-01-19 15:54:00,43.5,12.6,29.66,WNW,293,3.0,9.0,28,-99.99,,,0.00,meteohub,2013-01-19 20:54:00,
2013-01-19 15:59:00,43.3,12.4,29.66,WSW,252,5.0,9.0,28,-99.99,,,0.00,meteohub,2013-01-19 20:59:00,
2013-01-19 16:00:00,43.5,12.6,29.66,WSW,252,0.0,9.0,28,-99.99,,,0.00,meteohub,2013-01-19 21:00:00,
2013-01-19 16:05:00,43.3,12.4,29.66,NNW,335,3.0,11.0,28,-99.99,,,0.00,meteohub,2013-01-19 21:05:00,
2013-01-19 16:09:00,43.2,12.2,29.66,ENE,72,6.0,11.0,28,-99.99,,,0.00,meteohub,2013-01-19 21:09:00,
2013-01-19 16:14:00,42.8,12.0,29.66,WNW,299,3.0,10.0,28,-99.99,,,0.00,meteohub,2013-01-19 21:14:00,
2013-01-19 16:15:00,42.8,12.0,29.66,WNW,299,0.0,10.0,28,-99.99,,,0.00,meteohub,2013-01-19 21:15:00,
2013-01-19 16:20:00,42.8,12.0,29.66,ESE,112,0.0,10.0,28,-99.99,,,0.00,meteohub,2013-01-19 21:20:00,
2013-01-19 16:22:00,42.4,11.7,29.66,West,276,3.0,10.0,28,-99.99,,,0.00,meteohub,2013-01-19 21:22:00,
2013-01-19 16:29:00,42.3,12.2,29.66,NNW,345,4.0,8.0,29,-99.99,,,0.00,meteohub,2013-01-19 21:29:00,
2013-01-19 16:30:00,42.1,12.0,29.66,SW,215,5.0,8.0,29,-99.99,,,0.00,meteohub,2013-01-19 21:30:00,
2013-01-19 16:34:00,42.1,12.0,29.66,SSE,166,2.0,8.0,29,-99.99,,,0.00,meteohub,2013-01-19 21:34:00,
2013-01-19 16:36:00,42.1,12.0,29.66,NW,307,0.0,8.0,29,-99.99,,,0.00,meteohub,2013-01-19 21:36:00,
2013-01-19 16:41:00,41.9,12.0,29.66,North,353,3.0,8.0,29,-99.99,,,0.00,meteohub,2013-01-19 21:41:00,
2013-01-19 16:45:00,41.7,11.8,29.66,SW,227,4.0,8.0,29,-99.99,,,0.00,meteohub,2013-01-19 21:45:00,
2013-01-19 16:47:00,41.4,11.5,29.66,SSW,200,0.0,8.0,29,-99.99,,,0.00,meteohub,2013-01-19 21:47:00,
2013-01-19 16:50:00,41.2,11.3,29.66,NW,321,0.0,8.0,29,-99.99,,,0.00,meteohub,2013-01-19 21:50:00,
2013-01-19 16:52:00,41.2,11.3,29.66,West,279,4.0,8.0,29,-99.99,,,0.00,meteohub,2013-01-19 21:52:00,
2013-01-19 16:58:00,41.0,11.1,29.66,WNW,297,4.0,6.0,29,-99.99,,,0.00,meteohub,2013-01-19 21:58:00,
2013-01-19 17:08:00,41.0,11.8,29.66,WSW,249,6.0,6.0,30,-99.99,,,0.00,meteohub,2013-01-19 22:08:00,
2013-01-19 17:12:00,40.6,11.7,29.66,SW,219,0.0,6.0,30,-99.99,,,0.00,meteohub,2013-01-19 22:12:00,
2013-01-19 17:24:00,40.5,12.2,29.66,SW,224,2.0,7.0,31,-99.99,,,0.00,meteohub,2013-01-19 22:24:00,
2013-01-19 17:26:00,40.5,12.2,29.66,NNW,327,0.0,8.0,31,-99.99,,,0.00,meteohub,2013-01-19 22:26:00,
2013-01-19 17:34:00,40.5,11.5,29.66,WNW,291,0.0,8.0,30,-99.99,,,0.00,meteohub,2013-01-19 22:34:00,
2013-01-19 17:41:00,40.5,12.2,29.66,North,349,0.0,7.0,31,-99.99,,,0.00,meteohub,2013-01-19 22:41:00,
2013-01-19 17:42:00,40.3,12.0,29.66,NW,307,0.0,7.0,31,-99.99,,,0.00,meteohub,2013-01-19 22:42:00,
2013-01-19 17:46:00,40.1,11.8,29.66,NW,307,0.0,7.0,31,-99.99,,,0.00,meteohub,2013-01-19 22:46:00,
2013-01-19 17:47:00,39.9,11.7,29.66,SW,220,0.0,6.0,31,-99.99,,,0.00,meteohub,2013-01-19 22:47:00,
2013-01-19 17:53:00,39.7,11.5,29.66,SW,220,0.0,6.0,31,-99.99,,,0.00,meteohub,2013-01-19 22:53:00,
2013-01-19 17:58:00,39.6,12.2,29.66,North,353,0.0,5.0,32,-99.99,,,0.00,meteohub,2013-01-19 22:58:00,
2013-01-19 18:03:00,39.6,12.2,29.66,WNW,300,2.0,5.0,32,-99.99,,,0.00,meteohub,2013-01-19 23:03:00,
2013-01-19 18:05:00,39.6,12.2,29.66,West,264,0.0,5.0,32,-99.99,,,0.00,meteohub,2013-01-19 23:05:00,
2013-01-19 18:10:00,39.7,12.2,29.66,SSW,196,0.0,5.0,32,-99.99,,,0.00,meteohub,2013-01-19 23:10:00,
2013-01-19 18:15:00,39.6,12.2,29.66,West,281,0.0,10.0,32,-99.99,,,0.00,meteohub,2013-01-19 23:15:00,
2013-01-19 18:16:00,39.6,12.2,29.66,WSW,257,0.0,10.0,32,-99.99,,,0.00,meteohub,2013-01-19 23:16:00,
2013-01-19 18:21:00,39.4,12.0,29.66,NE,54,0.0,10.0,32,-99.99,,,0.00,meteohub,2013-01-19 23:21:00,
2013-01-19 18:25:00,39.2,11.8,29.66,WNW,287,0.0,10.0,32,-99.99,,,0.00,meteohub,2013-01-19 23:25:00,
2013-01-19 18:29:00,39.2,12.6,29.66,WNW,290,0.0,7.0,33,-99.99,,,0.00,meteohub,2013-01-19 23:29:00,
2013-01-19 18:32:00,39.0,12.4,29.66,WNW,295,3.0,7.0,33,-99.99,,,0.00,meteohub,2013-01-19 23:32:00,
2013-01-19 18:34:00,39.2,12.6,29.66,SW,234,0.0,7.0,33,-99.99,,,0.00,meteohub,2013-01-19 23:34:00,
2013-01-19 18:41:00,39.4,12.0,29.66,WNW,285,0.0,7.0,32,-99.99,,,0.00,meteohub,2013-01-19 23:41:00,
2013-01-19 18:42:00,39.4,12.7,29.66,West,259,0.0,7.0,33,-99.99,,,0.00,meteohub,2013-01-19 23:42:00,
2013-01-19 18:48:00,39.4,12.0,29.66,SSW,210,3.0,8.0,32,-99.99,,,0.00,meteohub,2013-01-19 23:48:00,
2013-01-19 18:49:00,39.4,12.0,29.66,SSW,199,4.0,8.0,32,-99.99,,,0.00,meteohub,2013-01-19 23:49:00,
2013-01-19 18:54:00,39.6,12.2,29.66,NW,311,0.0,8.0,32,-99.99,,,0.00,meteohub,2013-01-19 23:54:00,
2013-01-19 18:59:00,39.6,12.2,29.66,WSW,250,0.0,8.0,32,-99.99,,,0.00,meteohub,2013-01-19 23:59:00,
2013-01-19 19:02:00,39.4,12.0,29.66,WSW,250,0.0,8.0,32,-99.99,,,0.00,meteohub,2013-01-20 00:02:00,
2013-01-19 19:08:00,39.4,12.0,29.66,WSW,250,0.0,6.0,32,-99.99,,,0.00,meteohub,2013-01-20 00:08:00,
2013-01-19 19:14:00,39.2,11.8,29.63,WSW,253,0.0,0.0,32,-99.99,,,0.00,meteohub,2013-01-20 00:14:00,
2013-01-19 19:15:00,39.4,12.0,29.63,North,-999,-999.0,0.0,32,-99.99,,,0.00,meteohub,2013-01-20 00:15:00,
2013-01-19 19:22:00,39.4,12.0,29.63,SW,234,3.0,0.0,32,-99.99,,,0.00,meteohub,2013-01-20 00:22:00,
2013-01-19 19:25:00,39.4,12.0,29.63,SW,224,0.0,5.0,32,-99.99,,,0.00,meteohub,2013-01-20 00:25:00,
2013-01-19 19:33:00,39.4,12.0,29.63,SW,224,0.0,5.0,32,-99.99,,,0.00,meteohub,2013-01-20 00:33:00,
2013-01-19 19:34:00,39.2,11.8,29.63,SW,224,0.0,0.0,32,-99.99,,,0.00,meteohub,2013-01-20 00:34:00,
2013-01-19 19:39:00,38.8,12.2,29.63,SSW,208,0.0,0.0,33,-99.99,,,0.00,meteohub,2013-01-20 00:39:00,
2013-01-19 19:40:00,38.7,12.0,29.63,SSW,208,0.0,0.0,33,-99.99,,,0.00,meteohub,2013-01-20 00:40:00,
2013-01-19 19:48:00,38.5,11.8,29.63,West,264,0.0,0.0,33,-99.99,,,0.00,meteohub,2013-01-20 00:48:00,
2013-01-19 19:54:00,38.3,13.1,29.63,SSW,194,0.0,0.0,35,-99.99,,,0.00,meteohub,2013-01-20 00:54:00,
2013-01-19 19:55:00,38.1,13.5,29.63,North,-999,-999.0,5.0,36,-99.99,,,0.00,meteohub,2013-01-20 00:55:00,
2013-01-19 20:03:00,37.8,15.1,29.63,ESE,122,4.0,5.0,39,-99.99,,,0.00,meteohub,2013-01-20 01:03:00,
2013-01-19 20:04:00,37.8,15.1,29.63,SW,214,0.0,4.0,39,-99.99,,,0.00,meteohub,2013-01-20 01:04:00,
2013-01-19 20:08:00,37.8,15.1,29.63,WSW,250,0.0,4.0,39,-99.99,,,0.00,meteohub,2013-01-20 01:08:00,
2013-01-19 20:09:00,37.8,15.1,29.63,WSW,250,0.0,4.0,39,-99.99,,,0.00,meteohub,2013-01-20 01:09:00,
2013-01-19 20:14:00,37.6,14.9,29.63,SW,218,0.0,6.0,39,-99.99,,,0.00,meteohub,2013-01-20 01:14:00,
2013-01-19 20:19:00,37.6,14.9,29.63,SSW,204,0.0,6.0,39,-99.99,,,0.00,meteohub,2013-01-20 01:19:00,
2013-01-19 20:20:00,37.6,15.4,29.63,NNW,332,0.0,6.0,40,-99.99,,,0.00,meteohub,2013-01-20 01:20:00,
2013-01-19 20:28:00,37.4,15.3,29.63,WNW,285,6.0,6.0,40,-99.99,,,0.00,meteohub,2013-01-20 01:28:00,
2013-01-19 20:32:00,37.2,15.1,29.63,WNW,292,0.0,6.0,40,-99.99,,,0.00,meteohub,2013-01-20 01:32:00,
2013-01-19 20:33:00,37.0,15.4,29.63,WNW,292,0.0,6.0,41,-99.99,,,0.00,meteohub,2013-01-20 01:33:00,
2013-01-19 20:37:00,36.9,15.4,29.63,WNW,292,0.0,6.0,41,-99.99,,,0.00,meteohub,2013-01-20 01:37:00,
2013-01-19 20:39:00,36.9,15.4,29.63,WNW,292,0.0,6.0,41,-99.99,,,0.00,meteohub,2013-01-20 01:39:00,
2013-01-19 20:45:00,36.7,15.3,29.63,WNW,292,0.0,6.0,41,-99.99,,,0.00,meteohub,2013-01-20 01:45:00,
2013-01-19 20:47:00,36.5,15.1,29.63,NNW,343,0.0,0.0,41,-99.99,,,0.00,meteohub,2013-01-20 01:47:00,
2013-01-19 20:51:00,36.5,15.1,29.63,NNW,345,0.0,0.0,41,-99.99,,,0.00,meteohub,2013-01-20 01:51:00,
2013-01-19 20:57:00,36.5,15.1,29.63,NNW,346,0.0,0.0,41,-99.99,,,0.00,meteohub,2013-01-20 01:57:00,
2013-01-19 20:58:00,36.3,15.4,29.63,NNW,346,0.0,0.0,42,-99.99,,,0.00,meteohub,2013-01-20 01:58:00,
2013-01-19 21:03:00,36.3,15.4,29.63,NNW,345,0.0,0.0,42,-99.99,,,0.00,meteohub,2013-01-20 02:03:00,
2013-01-19 21:04:00,36.3,15.4,29.63,NNW,345,0.0,0.0,42,-99.99,,,0.00,meteohub,2013-01-20 02:04:00,
2013-01-19 21:08:00,36.3,16.0,29.63,North,0,0.0,0.0,43,-99.99,,,0.00,meteohub,2013-01-20 02:08:00,
2013-01-19 21:10:00,36.3,16.0,29.63,WSW,256,0.0,0.0,43,-99.99,,,0.00,meteohub,2013-01-20 02:10:00,
2013-01-19 21:16:00,36.3,16.5,29.63,NW,306,0.0,0.0,44,-99.99,,,0.00,meteohub,2013-01-20 02:16:00,
2013-01-19 21:18:00,36.3,16.5,29.63,NW,308,0.0,0.0,44,-99.99,,,0.00,meteohub,2013-01-20 02:18:00,
2013-01-19 21:23:00,36.3,17.1,29.63,NNW,333,0.0,0.0,45,-99.99,,,0.00,meteohub,2013-01-20 02:23:00,
2013-01-19 21:32:00,36.3,17.6,29.60,NNW,329,0.0,4.0,46,-99.99,,,0.00,meteohub,2013-01-20 02:32:00,
2013-01-19 21:36:00,36.9,18.5,29.60,SSE,156,5.0,5.0,47,-99.99,,,0.00,meteohub,2013-01-20 02:36:00,
2013-01-19 21:37:00,37.0,18.7,29.60,South,170,2.0,3.0,47,-99.99,,,0.00,meteohub,2013-01-20 02:37:00,
2013-01-19 21:49:00,37.2,18.9,29.60,SW,227,0.0,3.0,47,-99.99,,,0.00,meteohub,2013-01-20 02:49:00,
2013-01-19 21:54:00,37.6,19.6,29.60,NW,304,4.0,4.0,48,-99.99,,,0.00,meteohub,2013-01-20 02:54:00,
2013-01-19 21:55:00,37.6,19.6,29.60,NW,304,4.0,4.0,48,-99.99,,,0.00,meteohub,2013-01-20 02:55:00,
2013-01-19 22:04:00,37.8,19.8,29.60,NW,324,0.0,4.0,48,-99.99,,,0.00,meteohub,2013-01-20 03:04:00,
2013-01-19 22:10:00,37.8,19.8,29.60,West,274,0.0,4.0,48,-99.99,,,0.00,meteohub,2013-01-20 03:10:00,
2013-01-19 22:15:00,37.8,19.8,29.60,West,275,0.0,5.0,48,-99.99,,,0.00,meteohub,2013-01-20 03:15:00,
2013-01-19 22:17:00,37.8,19.8,29.60,SE,141,2.0,5.0,48,-99.99,,,0.00,meteohub,2013-01-20 03:17:00,
2013-01-19 22:22:00,37.9,19.9,29.60,WNW,291,7.0,7.0,48,-99.99,,,0.00,meteohub,2013-01-20 03:22:00,
2013-01-19 22:24:00,37.9,19.9,29.60,SW,225,0.0,4.0,48,-99.99,,,0.00,meteohub,2013-01-20 03:24:00,
2013-01-19 22:29:00,37.9,19.9,29.57,WSW,257,0.0,4.0,48,-99.99,,,0.00,meteohub,2013-01-20 03:29:00,
2013-01-19 22:41:00,37.8,19.8,29.57,North,4,0.0,7.0,48,-99.99,,,0.00,meteohub,2013-01-20 03:41:00,
2013-01-19 22:48:00,37.6,19.6,29.57,NW,305,0.0,7.0,48,-99.99,,,0.00,meteohub,2013-01-20 03:48:00,
2013-01-19 22:49:00,37.6,19.6,29.57,WSW,253,0.0,4.0,48,-99.99,,,0.00,meteohub,2013-01-20 03:49:00,
2013-01-19 22:53:00,37.6,19.6,29.57,WSW,253,0.0,4.0,48,-99.99,,,0.00,meteohub,2013-01-20 03:53:00,
2013-01-19 23:01:00,37.6,19.6,29.57,WSW,253,0.0,4.0,48,-99.99,,,0.00,meteohub,2013-01-20 04:01:00,
2013-01-19 23:03:00,37.4,19.9,29.57,North,2,0.0,4.0,49,-99.99,,,0.00,meteohub,2013-01-20 04:03:00,
2013-01-19 23:07:00,37.4,19.9,29.57,WSW,243,0.0,2.0,49,-99.99,,,0.00,meteohub,2013-01-20 04:07:00,
2013-01-19 23:09:00,37.4,19.9,29.57,WSW,243,0.0,2.0,49,-99.99,,,0.00,meteohub,2013-01-20 04:09:00,
2013-01-19 23:19:00,37.2,19.8,29.54,WSW,243,0.0,2.0,49,-99.99,,,0.00,meteohub,2013-01-20 04:19:00,
2013-01-19 23:22:00,37.0,19.6,29.54,NNW,329,0.0,2.0,49,-99.99,,,0.00,meteohub,2013-01-20 04:22:00,
2013-01-19 23:24:00,36.9,19.4,29.54,NW,305,4.0,4.0,49,-99.99,,,0.00,meteohub,2013-01-20 04:24:00,
2013-01-19 23:28:00,36.9,19.9,29.54,WSW,240,0.0,4.0,50,-99.99,,,0.00,meteohub,2013-01-20 04:28:00,
2013-01-19 23:33:00,36.7,19.8,29.54,WSW,240,0.0,4.0,50,-99.99,,,0.00,meteohub,2013-01-20 04:33:00,
2013-01-19 23:34:00,36.7,19.8,29.54,SSE,147,0.0,4.0,50,-99.99,,,0.00,meteohub,2013-01-20 04:34:00,
2013-01-19 23:44:00,36.9,19.9,29.54,SW,226,0.0,4.0,50,-99.99,,,0.00,meteohub,2013-01-20 04:44:00,
2013-01-19 23:49:00,37.0,20.7,29.54,SE,125,0.0,3.0,51,-99.99,,,0.00,meteohub,2013-01-20 04:49:00,
2013-01-19 23:50:00,37.0,20.7,29.54,SE,125,0.0,3.0,51,-99.99,,,0.00,meteohub,2013-01-20 04:50:00,
2013-01-19 23:55:00,37.2,20.8,29.54,ENE,70,0.0,4.0,51,-99.99,,,0.00,meteohub,2013-01-20 04:55:00,